Simultaneous Nadir Overpasses (SNOs) Predictions

Prediction of SNOs between AQUA and NOAA-19 Satellite Orbit:

Table of predicted SNOs for the next 14.0 days since TLE Epoch: 2/12/2016
Index Date (AQUA) Time (AQUA) Lat,Lon (AQUA) SZA (AQUA ) Date (NOAA-19) Time (NOAA-19) Lat,Lon (NOAA-19) SZA (NOAA-19 ) Distance(km) Time Diff (sec)
1 02/14/2016 05:03:09 -80.72,-113.46 83.88 02/14/2016 05:02:36 -80.72,-113.54 83.85 1.61 33
2 02/14/2016 05:52:35 80.69, 54.49 96.06 02/14/2016 05:53:40 80.70, 54.36 96.05 2.30 65
3 02/16/2016 10:36:56 80.70, -16.72 95.34 02/16/2016 10:36:49 80.71, -16.62 95.33 1.80 7
4 02/18/2016 16:10:43 -80.72, 79.70 85.43 02/18/2016 16:10:54 -80.72, 79.57 85.41 2.51 11
5 02/20/2016 20:55:04 -80.75, 8.27 86.15 02/20/2016 20:54:03 -80.74, 8.42 86.15 2.80 61
6 02/20/2016 21:44:29 80.70, 176.50 93.74 02/20/2016 21:45:07 80.70, 176.51 93.73 0.59 38
7 02/23/2016 02:28:50 80.74, 104.94 93.02 02/23/2016 02:28:17 80.73, 104.99 93.03 0.91 33
8 02/23/2016 03:18:15 -80.70, -86.94 87.07 02/23/2016 03:19:10 -80.69, -86.78 87.12 3.03 55




NCC Satellite Simultaneous Nadir Overpasses (SNOs) Prediction Service
